Tracking 17857 objects as of 29-September-2016
HD Live streaming from Space Station
objects crossing your sky now

CZ-3C R/B

Track CZ-3C R/B now!
10-day predictions


NORAD ID: 36591
Int'l Code: 2010-024B
Perigee: 179.1 km
Apogee: 18,749.0 km
Inclination: 20.7 °
Period: 330.5 minutes
Semi major axis: 15835 km
RCS: 15.0139 m2 (large)
Launch date: June 2, 2010
Source: People's Republic of China (PRC)
Launch site: Xichang Space Center, China (XSC)

Note: This is a ROCKET BODY
Your satellite tracking list
Your tracking list is empty





NASA's NSSDC Master Catalog

Two Line Element Set (TLE):
1 36591U 10024B   16273.13937902  .00098245  80151-6  11686-2 0  9997
2 36591  20.6712 143.0200 5863540 224.0909  70.5247  4.35686035 74906
Source of the keplerian elements: AFSPC

N2YO: 2144